User: anonymous   Login
Location: Unspecified
(0.0000°N, 0.0000°E)
Time: 03:00:17
(UTC+00:00)
Language:

IGS 6A - Orbit

View from above orbital plane
View from above orbital plane
View from above satellite
View from above satellite

Ground track
Ground track

The orbit data is extracted from the following two-line orbital elements,

1 37813U 11050A   17243.96383257 0.00000000  00000-0  00000-0 0    02
2 37813  97.7056 359.8360 0004000   2.5167 357.4832 14.93444562    01
Epoch (UTC): 31 August 2017 23:07:55
Eccentricity: 0.0004000
inclination: 97.7056°
perigee height: 584 km
apogee height: 590 km
right ascension of ascending node: 359.8360°
argument of perigee: 2.5167°
revolutions per day: 14.93444562
mean anomaly at epoch: 357.4832°
orbit number at epoch: 0

The dashed part of the orbit path shows where the satellite is in the earth's shadow,  

DLR